GW0842 Weather Reports


time (UTC)temp
F
wind
direction
speed
knots
gust
knots
rain 1hr
in
rain 24hr
in
rain mn
in
humidity
%
barometer
mb
20260505152332 76 251 3.5 4.3 0.00 0.00 0.00 55 1030.4
20260505151831 77 286 1.7 6.1 0.00 0.00 0.00 57 1030.5
20260505151328 76 187 0.0 3.5 0.00 0.00 0.00 56 1030.6
20260505150825 74 166 2.6 7.0 0.00 0.00 0.00 57 1030.6
20260505150322 74 186 2.6 7.8 0.00 0.00 0.00 55 1030.5
20260505140247 70 280 1.7 7.8 0.00 0.00 0.00 65 1030.2
20260505130211 67 352 0.0 3.5 0.00 0.00 0.00 71 1030.5
20260505124701 65 166 2.6 6.1 0.00 0.00 0.00 73 1030.6
20260505124157 64 161 3.5 7.0 0.00 0.00 0.00 73 1030.7
20260505123653 65 169 0.0 3.5 0.00 0.00 0.00 72 1030.7
20260505123150 64 270 2.6 5.2 0.00 0.00 0.00 73 1030.7
20260505122646 64 232 1.7 3.5 0.00 0.00 0.00 74 1030.6
20260505122143 64 206 3.5 8.7 0.00 0.00 0.00 73 1030.6
20260505121635 64 5 0.0 3.5 0.00 0.00 0.00 73 1030.7
20260505121132 62 236 0.0 5.2 0.00 0.00 0.00 76 1030.5
20260505120627 63 282 1.7 2.6 0.00 0.00 0.00 76 1030.3
20260505120124 62 220 1.7 3.5 0.00 0.00 0.00 76 1030.5
20260505115618 65 270 0.0 0.9 0.00 0.00 0.00 71 1030.5
20260505115116 62 198 1.7 2.6 0.00 0.00 0.00 75 1030.4
20260505114612 62 257 0.0 1.7 0.00 0.00 0.00 77 1030.6
20260505114109 63 74 0.0 1.7 0.00 0.00 0.00 75 1030.3
20260505113605 61 189 0.0 3.5 0.00 0.00 0.00 78 1030.3
20260505113102 61 144 1.7 3.5 0.00 0.00 0.00 78 1030.4
20260505112558 60 220 0.0 1.7 0.00 0.00 0.00 79 1030.3
20260505112056 59 229 1.7 3.5 0.00 0.00 0.00 80 1030.1
20260505111550 58 253 0.0 1.7 0.00 0.00 0.00 83 1030.2
20260505111046 58 195 0.0 1.7 0.00 0.00 0.00 84 1030.2
20260505110543 57 257 0.0 1.7 0.00 0.00 0.00 84 1030.1
20260505102015 56 166 0.0 2.6 0.00 0.00 0.00 84 1029.5
20260505101514 57 243 0.0 1.7 0.00 0.00 0.00 83 1029.6
20260505101010 57 142 1.7 1.7 0.00 0.00 0.00 83 1029.5
20260505100507 57 263 0.9 0.9 0.00 0.00 0.00 83 1029.5
20260505100004 57 194 0.0 2.6 0.00 0.00 0.00 82 1029.5
20260505095500 57 215 0.0 0.9 0.00 0.00 0.00 82 1029.3
20260505094956 57 81 0.0 0.9 0.00 0.00 0.00 83 1029.1
20260505094453 57 114 0.9 1.7 0.00 0.00 0.00 83 1029.3
20260505093949 57 0 0.0 1.7 0.00 0.00 0.00 83 1029.1
20260505093446 57 203 0.0 0.9 0.00 0.00 0.00 83 1029.2
20260505092943 57 166 2.6 5.2 0.00 0.00 0.00 83 1029.3
20260505092441 57 340 0.9 2.6 0.00 0.00 0.00 84 1029.0
20260505091938 57 270 0.0 0.9 0.00 0.00 0.00 83 1029.0
20260505091436 57 234 0.0 1.7 0.00 0.00 0.00 83 1029.2
20260505090933 57 203 0.0 1.7 0.00 0.00 0.00 83 1029.1
20260505090432 57 82 0.0 0.9 0.00 0.00 0.00 82 1029.2
20260505085928 57 278 0.0 2.6 0.00 0.00 0.00 82 1029.3
20260505085426 57 250 0.0 1.7 0.00 0.00 0.00 83 1029.0
20260505084924 58 294 0.9 1.7 0.00 0.00 0.00 81 1029.2
20260505084422 58 246 0.9 1.7 0.00 0.00 0.00 81 1028.9
20260505083920 58 261 0.0 0.9 0.00 0.00 0.00 81 1029.0
20260505083417 59 203 0.9 2.6 0.00 0.00 0.00 78 1028.9
20260505082913 58 143 0.0 1.7 0.00 0.00 0.00 80 1028.9
20260505082409 58 257 3.5 3.5 0.00 0.00 0.00 80 1029.0
20260505081906 59 163 0.0 3.5 0.00 0.00 0.00 79 1028.9
20260505081403 59 270 2.6 3.5 0.00 0.00 0.00 80 1029.0
20260505080900 59 180 1.7 1.7 0.00 0.00 0.00 80 1029.0
20260505080355 59 237 0.0 1.7 0.00 0.00 0.00 80 1028.8
20260505075851 59 157 1.7 7.0 0.00 0.00 0.00 79 1028.9
20260505075348 59 214 1.7 2.6 0.00 0.00 0.00 81 1028.9
20260505074846 59 261 0.0 1.7 0.00 0.00 0.00 80 1028.5
20260505074343 59 180 0.0 0.9 0.00 0.00 0.00 80 1028.8
20260505073840 59 82 0.0 0.0 0.00 0.00 0.00 80 1028.7
20260505073338 59 82 0.0 0.9 0.00 0.00 0.00 79 1028.8
20260505072834 59 157 0.0 1.7 0.00 0.00 0.00 79 1028.6
20260505072331 60 248 1.7 2.6 0.00 0.00 0.00 78 1028.5
20260505071827 60 270 0.0 0.9 0.00 0.00 0.00 79 1028.7
20260505071323 60 172 0.0 1.7 0.00 0.00 0.00 78 1028.6
20260505070822 60 194 0.0 0.9 0.00 0.00 0.00 78 1028.5
20260505070318 60 285 0.9 0.9 0.00 0.00 0.00 78 1028.7
20260505065813 60 187 0.9 2.6 0.00 0.00 0.00 77 1028.6
20260505065310 61 180 1.7 4.3 0.00 0.00 0.00 76 1028.5
20260505064807 60 186 0.0 3.5 0.00 0.00 0.00 76 1028.4
20260505064304 61 99 0.0 1.7 0.00 0.00 0.00 76 1028.7
20260505063802 61 287 5.2 5.2 0.00 0.00 0.00 76 1028.6
20260505063258 61 357 2.6 4.3 0.00 0.00 0.00 76 1028.4
20260505062755 61 270 0.0 4.3 0.00 0.00 0.00 75 1028.7
20260505062252 61 195 0.0 1.7 0.00 0.00 0.00 75 1028.7
20260505061749 62 270 0.9 1.7 0.00 0.00 0.00 75 1028.4
20260505061247 62 169 0.0 2.6 0.00 0.00 0.00 74 1028.6
20260505060744 62 285 0.9 5.2 0.00 0.00 0.00 74 1028.5
20260505060241 62 169 3.5 4.3 0.00 0.00 0.00 73 1028.7
20260505055736 62 243 0.0 0.9 0.00 0.00 0.00 74 1028.6
20260505055233 62 228 1.7 5.2 0.00 0.00 0.00 73 1028.8
20260505054730 62 237 3.5 4.3 0.00 0.00 0.00 73 1028.5
20260505054228 62 187 0.0 2.6 0.00 0.00 0.00 73 1028.6
20260505053726 62 328 2.6 2.6 0.00 0.00 0.00 73 1028.5
20260505053222 63 157 2.6 3.5 0.00 0.00 0.00 72 1028.5
20260505052720 63 165 1.7 3.5 0.00 0.00 0.00 72 1028.6
20260505052216 63 348 0.9 1.7 0.00 0.00 0.00 73 1028.6
20260505051714 63 185 1.7 2.6 0.00 0.00 0.00 72 1028.6
20260505051212 63 289 1.7 3.5 0.00 0.00 0.00 71 1028.6
20260505050709 64 165 0.0 3.5 0.00 0.00 0.00 71 1028.4
20260505050207 63 243 0.0 2.6 0.00 0.00 0.00 72 1028.6
20260505041637 64 185 0.9 7.8 0.00 0.00 0.00 69 1028.6
20260505041134 64 209 1.7 4.3 0.00 0.00 0.00 69 1028.6
20260505040631 64 180 0.0 2.6 0.00 0.00 0.00 69 1028.5
20260505040128 65 270 0.0 1.7 0.00 0.00 0.00 69 1028.5
20260505035624 65 188 0.0 4.3 0.00 0.00 0.00 68 1028.4
20260505035121 65 289 0.0 3.5 0.00 0.00 0.00 68 1028.4
20260505034618 66 270 3.5 6.1 0.00 0.00 0.00 67 1028.6
20260505034114 66 237 1.7 5.2 0.00 0.00 0.00 67 1028.6
20260505033611 66 90 2.6 5.2 0.00 0.00 0.00 67 1028.5
20260505033110 66 277 2.6 3.5 0.00 0.00 0.00 66 1028.6
20260505032607 66 207 2.6 5.2 0.00 0.00 0.00 66 1028.4
20260505032103 66 303 1.7 5.2 0.00 0.00 0.00 65 1028.6
20260505031601 67 312 3.5 7.0 0.00 0.00 0.00 65 1028.6
20260505031057 67 228 1.7 3.5 0.00 0.00 0.00 64 1028.5
20260505030554 67 225 1.7 4.3 0.00 0.00 0.00 63 1028.6
20260505030050 67 264 0.9 7.0 0.00 0.00 0.00 62 1028.4
20260505025546 67 261 0.0 6.1 0.00 0.00 0.00 61 1028.5
20260505025045 67 165 0.0 2.6 0.00 0.00 0.00 60 1028.3
20260505024541 68 225 2.6 2.6 0.00 0.00 0.00 58 1028.5
20260505024038 68 14 3.5 4.3 0.00 0.00 0.00 56 1028.5
20260505023535 68 175 1.7 1.7 0.00 0.00 0.00 54 1028.5
20260505023033 68 128 0.0 3.5 0.00 0.00 0.00 54 1028.4
20260505022531 68 205 2.6 2.6 0.00 0.00 0.00 52 1028.5
20260505022027 69 60 1.7 3.5 0.00 0.00 0.00 51 1028.3
20260505021524 69 200 4.3 5.2 0.00 0.00 0.00 51 1028.3
20260505021021 69 292 1.7 2.6 0.00 0.00 0.00 52 1028.0
20260505020520 69 187 0.9 3.5 0.00 0.00 0.00 52 1028.1
20260505020018 69 185 0.9 8.7 0.00 0.00 0.00 50 1028.0
20260505015515 69 270 0.0 1.7 0.00 0.00 0.00 51 1028.0
20260505015012 70 310 2.6 2.6 0.00 0.00 0.00 50 1028.0
20260505014509 69 90 0.0 1.7 0.00 0.00 0.00 50 1027.8
20260505014006 70 185 0.0 2.6 0.00 0.00 0.00 50 1027.7
20260505013503 69 145 0.0 4.3 0.00 0.00 0.00 51 1027.8
20260505013000 69 209 0.0 3.5 0.00 0.00 0.00 51 1027.7
20260505012458 69 176 1.7 1.7 0.00 0.00 0.00 51 1027.6
20260505011955 68 253 1.7 1.7 0.00 0.00 0.00 51 1027.8
20260505011451 68 195 0.0 1.7 0.00 0.00 0.00 50 1027.3
20260505010948 69 294 0.0 0.9 0.00 0.00 0.00 50 1027.6
20260505010443 69 185 0.9 0.9 0.00 0.00 0.00 49 1027.6
20260505005940 69 194 0.0 1.7 0.00 0.00 0.00 49 1027.4
20260505005436 70 213 0.0 2.6 0.00 0.00 0.00 48 1027.2
20260505004934 69 12 0.9 1.7 0.00 0.00 0.00 48 1027.2
20260505004431 69 14 0.0 0.9 0.00 0.00 0.00 48 1027.3
20260505003928 70 195 0.0 2.6 0.00 0.00 0.00 46 1027.3
20260505003425 71 212 0.0 1.7 0.00 0.00 0.00 46 1027.1
20260505002921 71 253 1.7 2.6 0.00 0.00 0.00 45 1027.1
20260505002417 70 352 0.0 1.7 0.00 0.00 0.00 44 1027.0
20260505001916 70 203 0.0 0.9 0.00 0.00 0.00 45 1026.9
20260505001413 71 279 0.0 0.0 0.00 0.00 0.00 45 1026.7
20260505000910 71 180 0.0 0.0 0.00 0.00 0.00 44 1026.7
20260505000408 72 195 0.0 0.0 0.00 0.00 0.00 44 1026.7
20260504235904 73 195 0.0 0.9 0.00 0.00 0.00 43 1026.5
20260504235402 73 255 0.0 0.9 0.00 0.00 0.00 41 1026.6
20260504234857 74 255 0.0 1.7 0.00 0.00 0.00 40 1026.7
20260504234355 75 0 0.0 2.6 0.00 0.00 0.00 39 1026.6
20260504233852 75 236 0.0 1.7 0.00 0.00 0.00 39 1026.4
20260504233348 76 278 0.9 2.6 0.00 0.00 0.00 39 1026.5
20260504232844 76 255 0.0 2.6 0.00 0.00 0.00 37 1026.5
20260504232342 77 165 0.0 3.5 0.00 0.00 0.00 37 1026.5
20260504231838 78 278 0.9 2.6 0.00 0.00 0.00 37 1026.5
20260504231335 79 188 0.0 4.3 0.00 0.00 0.00 36 1026.3
20260504230831 80 283 0.9 2.6 0.00 0.00 0.00 36 1026.7
20260504230329 79 255 0.9 3.5 0.00 0.00 0.00 36 1026.4
20260504225827 80 74 0.0 1.7 0.00 0.00 0.00 35 1026.4
20260504225323 80 254 1.7 4.3 0.00 0.00 0.00 35 1026.5
20260504224821 79 346 0.9 2.6 0.00 0.00 0.00 35 1026.4
20260504224318 80 190 4.3 5.2 0.00 0.00 0.00 34 1026.3
20260504223815 80 225 0.0 5.2 0.00 0.00 0.00 35 1026.5
20260504223310 80 141 2.6 6.1 0.00 0.00 0.00 35 1026.5
20260504222807 80 283 3.5 3.5 0.00 0.00 0.00 35 1026.6
20260504222305 81 12 0.0 4.3 0.00 0.00 0.00 35 1026.5
20260504221802 81 289 3.5 3.5 0.00 0.00 0.00 35 1026.6
20260504221259 80 257 0.9 3.5 0.00 0.00 0.00 36 1026.7
20260504220755 81 10 0.0 2.6 0.00 0.00 0.00 35 1026.5
20260504220252 80 100 1.7 4.3 0.00 0.00 0.00 36 1026.5
20260504215750 82 322 2.6 3.5 0.00 0.00 0.00 35 1026.5
20260504215246 80 315 1.7 4.3 0.00 0.00 0.00 35 1026.4
20260504214742 81 254 3.5 5.2 0.00 0.00 0.00 35 1026.4
20260504214238 81 324 2.6 4.3 0.00 0.00 0.00 34 1026.5
20260504213736 81 172 0.0 5.2 0.00 0.00 0.00 34 1026.5
20260504213232 82 213 2.6 7.0 0.00 0.00 0.00 35 1026.5
20260504212729 81 233 0.0 5.2 0.00 0.00 0.00 36 1026.6
20260504212225 81 90 0.9 5.2 0.00 0.00 0.00 35 1026.5
20260504211723 81 180 0.0 6.1 0.00 0.00 0.00 35 1026.5
20260504211219 82 172 0.0 2.6 0.00 0.00 0.00 33 1026.4
20260504210717 81 322 3.5 5.2 0.00 0.00 0.00 34 1026.6
20260504210214 82 237 1.7 3.5 0.00 0.00 0.00 35 1026.6
20260504205711 81 189 3.5 8.7 0.00 0.00 0.00 35 1026.6
20260504205208 82 280 0.0 4.3 0.00 0.00 0.00 34 1026.4
20260504204706 81 172 1.7 9.6 0.00 0.00 0.00 34 1026.9
20260504204205 81 345 2.6 4.3 0.00 0.00 0.00 35 1026.7
20260504203703 82 228 0.0 7.0 0.00 0.00 0.00 35 1026.6
20260504203201 81 254 2.6 3.5 0.00 0.00 0.00 34 1026.9
20260504202700 81 270 5.2 7.8 0.00 0.00 0.00 34 1026.9
20260504202158 80 276 2.6 7.8 0.00 0.00 0.00 36 1027.0
20260504201654 80 285 2.6 10.4 0.00 0.00 0.00 35 1027.3
20260504201152 81 270 0.9 7.0 0.00 0.00 0.00 35 1027.1
20260504200649 81 321 3.5 3.5 0.00 0.00 0.00 35 1027.0
20260504200146 80 172 0.0 6.1 0.00 0.00 0.00 35 1027.0
20260504195641 82 222 2.6 3.5 0.00 0.00 0.00 35 1027.3
20260504195138 80 145 0.9 5.2 0.00 0.00 0.00 35 1027.5
20260504194635 80 274 2.6 4.3 0.00 0.00 0.00 35 1027.5
20260504194131 79 282 1.7 5.2 0.00 0.00 0.00 35 1027.4
20260504193627 81 246 1.7 4.3 0.00 0.00 0.00 34 1027.5
20260504193126 79 176 3.5 6.1 0.00 0.00 0.00 35 1027.4
20260504192623 80 240 0.0 5.2 0.00 0.00 0.00 35 1027.8
20260504192121 78 354 3.5 6.1 0.00 0.00 0.00 35 1027.9
20260504191619 79 48 1.7 5.2 0.00 0.00 0.00 35 1027.8
20260504191115 79 231 2.6 5.2 0.00 0.00 0.00 35 1028.0
20260504190612 80 230 0.0 6.1 0.00 0.00 0.00 36 1028.0
20260504190108 77 301 2.6 6.1 0.00 0.00 0.00 35 1027.9
20260504185605 79 36 1.7 4.3 0.00 0.00 0.00 35 1028.0
20260504185101 79 300 0.9 7.0 0.00 0.00 0.00 35 1028.0
20260504184557 79 219 2.6 5.2 0.00 0.00 0.00 37 1028.0
20260504184052 77 233 2.6 7.8 0.00 0.00 0.00 36 1028.1
20260504183550 78 267 0.0 5.2 0.00 0.00 0.00 37 1028.2
20260504183048 78 293 1.7 4.3 0.00 0.00 0.00 37 1028.6
20260504182544 77 254 4.3 4.3 0.00 0.00 0.00 37 1028.5
20260504182042 79 311 1.7 5.2 0.00 0.00 0.00 37 1028.5
20260504181539 78 309 0.0 2.6 0.00 0.00 0.00 38 1028.2
20260504181037 78 276 1.7 7.8 0.00 0.00 0.00 38 1028.4
20260504180536 76 341 3.5 6.1 0.00 0.00 0.00 37 1028.5
20260504180034 77 110 4.3 5.2 0.00 0.00 0.00 36 1028.6
20260504175531 77 236 3.5 3.5 0.00 0.00 0.00 39 1028.5
20260504175028 76 250 3.5 5.2 0.00 0.00 0.00 40 1028.7
20260504174526 75 253 0.0 6.1 0.00 0.00 0.00 38 1028.7
20260504174022 77 205 2.6 3.5 0.00 0.00 0.00 38 1028.5
20260504173519 77 236 2.6 4.3 0.00 0.00 0.00 40 1028.6
20260504173017 74 11 5.2 8.7 0.00 0.00 0.00 41 1028.5
20260504172513 77 0 0.9 4.3 0.00 0.00 0.00 38 1028.6
20260504172009 76 40 1.7 2.6 0.00 0.00 0.00 37 1028.8
20260504171506 74 295 1.7 5.2 0.00 0.00 0.00 38 1029.0
20260504171003 79 265 1.7 4.3 0.00 0.00 0.00 40 1029.1
20260504170459 75 193 5.2 6.1 0.00 0.00 0.00 40 1029.2
20260504160419 71 279 1.7 7.0 0.00 0.00 0.00 48 1030.1